| time (UTC) | temp F | wind direction | speed MPH | gust MPH | rain 1hr in | rain 24hr in | rain mn in | humidity % | barometer mb |
| 20260503054600 | 69 | 0 | 0.0 | 3.0 | 0.00 | 0.00 | 0.00 | 24 | 1015.9 |
| 20260503053056 | 71 | 15 | 1.0 | 5.0 | 0.00 | 0.00 | 0.00 | 23 | 1015.9 |
| 20260503051558 | 72 | 261 | 4.0 | 10.0 | 0.00 | 0.00 | 0.00 | 23 | 1015.8 |
| 20260503050056 | 72 | 239 | 6.0 | 14.0 | 0.00 | 0.00 | 0.00 | 23 | 1015.6 |
| 20260503044608 | 73 | 221 | 7.0 | 14.0 | 0.00 | 0.00 | 0.00 | 23 | 1015.3 |
| 20260503043101 | 73 | 202 | 6.0 | 11.0 | 0.00 | 0.00 | 0.00 | 23 | 1015.2 |
| 20260503041554 | 73 | 244 | 8.0 | 13.0 | 0.00 | 0.00 | 0.00 | 23 | 1015.0 |
| 20260503034602 | 73 | 254 | 6.0 | 13.0 | 0.00 | 0.00 | 0.00 | 22 | 1014.6 |
| 20260503033058 | 73 | 171 | 5.0 | 11.0 | 0.00 | 0.00 | 0.00 | 22 | 1014.6 |
| 20260503031555 | 73 | 229 | 4.0 | 11.0 | 0.00 | 0.00 | 0.00 | 21 | 1014.3 |
| 20260503030124 | 74 | 222 | 4.0 | 10.0 | 0.00 | 0.00 | 0.00 | 21 | 1014.1 |
| 20260503024604 | 74 | 209 | 5.0 | 11.0 | 0.00 | 0.00 | 0.00 | 20 | 1013.9 |
| 20260503023055 | 74 | 198 | 4.0 | 10.0 | 0.00 | 0.00 | 0.00 | 20 | 1013.7 |
| 20260503021605 | 74 | 212 | 3.0 | 8.0 | 0.00 | 0.00 | 0.00 | 19 | 1013.5 |
| 20260503020055 | 75 | 207 | 2.0 | 5.0 | 0.00 | 0.00 | 0.00 | 18 | 1013.5 |
| 20260503014604 | 76 | 236 | 3.0 | 6.0 | 0.00 | 0.00 | 0.00 | 17 | 1013.5 |
| 20260503013056 | 78 | 202 | 0.0 | 5.0 | 0.00 | 0.00 | 0.00 | 16 | 1013.5 |
| 20260503011600 | 80 | 151 | 0.0 | 5.0 | 0.00 | 0.00 | 0.00 | 15 | 1013.5 |
| 20260503010106 | 80 | 184 | 0.0 | 5.0 | 0.00 | 0.00 | 0.00 | 15 | 1013.5 |
| 20260503004555 | 79 | 206 | 1.0 | 5.0 | 0.00 | 0.00 | 0.00 | 15 | 1013.5 |
| 20260503003059 | 80 | 216 | 2.0 | 15.0 | 0.00 | 0.00 | 0.00 | 14 | 1013.7 |
| 20260503001555 | 81 | 105 | 3.0 | 9.0 | 0.00 | 0.00 | 0.00 | 14 | 1013.5 |
| 20260503000058 | 82 | 170 | 2.0 | 7.0 | 0.00 | 0.00 | 0.00 | 13 | 1013.6 |
| 20260502234559 | 82 | 101 | 2.0 | 8.0 | 0.00 | 0.00 | 0.00 | 13 | 1013.5 |
| 20260502233055 | 82 | 94 | 1.0 | 6.0 | 0.00 | 0.00 | 0.00 | 13 | 1013.5 |
| 20260502231606 | 82 | 256 | 1.0 | 10.0 | 0.00 | 0.00 | 0.00 | 12 | 1013.7 |
| 20260502230100 | 82 | 84 | 4.0 | 9.0 | 0.00 | 0.00 | 0.00 | 13 | 1014.0 |
| 20260502224557 | 83 | 14 | 2.0 | 10.0 | 0.00 | 0.00 | 0.00 | 12 | 1014.1 |
| 20260502223058 | 83 | 286 | 2.0 | 8.0 | 0.00 | 0.00 | 0.00 | 12 | 1014.4 |
| 20260502221559 | 81 | 76 | 2.0 | 13.0 | 0.00 | 0.00 | 0.00 | 12 | 1014.7 |
| 20260502220055 | 82 | 70 | 5.0 | 10.0 | 0.00 | 0.00 | 0.00 | 12 | 1014.8 |
| 20260502214559 | 82 | 114 | 5.0 | 15.0 | 0.00 | 0.00 | 0.00 | 12 | 1015.2 |
| 20260502213054 | 81 | 19 | 3.0 | 9.0 | 0.00 | 0.00 | 0.00 | 14 | 1015.4 |
| 20260502211601 | 82 | 110 | 2.0 | 9.0 | 0.00 | 0.00 | 0.00 | 14 | 1015.7 |
| 20260502210057 | 81 | 0 | 3.0 | 10.0 | 0.00 | 0.00 | 0.00 | 13 | 1016.1 |
| 20260502204611 | 81 | 71 | 5.0 | 11.0 | 0.00 | 0.00 | 0.00 | 14 | 1016.3 |
| 20260502203115 | 80 | 139 | 4.0 | 12.0 | 0.00 | 0.00 | 0.00 | 14 | 1016.6 |
| 20260502201557 | 79 | 130 | 3.0 | 7.0 | 0.00 | 0.00 | 0.00 | 16 | 1016.7 |
| 20260502200055 | 78 | 107 | 3.0 | 9.0 | 0.00 | 0.00 | 0.00 | 16 | 1016.9 |
| 20260502194601 | 80 | 84 | 5.0 | 10.0 | 0.00 | 0.00 | 0.00 | 15 | 1017.0 |
| 20260502193100 | 79 | 258 | 6.0 | 14.0 | 0.00 | 0.00 | 0.00 | 15 | 1017.2 |
| 20260502191601 | 78 | 181 | 4.0 | 11.0 | 0.00 | 0.00 | 0.00 | 15 | 1017.4 |
| 20260502190058 | 77 | 29 | 4.0 | 7.0 | 0.00 | 0.00 | 0.00 | 16 | 1017.6 |
| 20260502184600 | 78 | 63 | 5.0 | 13.0 | 0.00 | 0.00 | 0.00 | 16 | 1018.0 |
| 20260502183057 | 78 | 102 | 5.0 | 16.0 | 0.00 | 0.00 | 0.00 | 18 | 1018.2 |
| 20260502181611 | 76 | 172 | 4.0 | 11.0 | 0.00 | 0.00 | 0.00 | 18 | 1018.4 |
| 20260502163056 | 73 | 56 | 1.0 | 6.0 | 0.00 | 0.00 | 0.00 | 23 | 1019.0 |
| 20260502161559 | 72 | 98 | 1.0 | 8.0 | 0.00 | 0.00 | 0.00 | 23 | 1018.8 |
| 20260502151606 | 68 | 342 | 0.0 | 3.0 | 0.00 | 0.00 | 0.00 | 23 | 1018.7 |
| 20260502140105 | 65 | 0 | 0.0 | 1.0 | 0.00 | 0.00 | 0.00 | 23 | 1018.2 |
| 20260502130105 | 55 | 291 | 0.0 | 3.0 | 0.00 | 0.00 | 0.00 | 31 | 1017.5 |
| 20260502123053 | 54 | 283 | 1.0 | 6.0 | 0.00 | 0.00 | 0.00 | 31 | 1017.2 |
| 20260502121558 | 55 | 0 | 0.0 | 4.0 | 0.00 | 0.00 | 0.00 | 30 | 1017.0 |
| 20260502114559 | 56 | 253 | 1.0 | 4.0 | 0.00 | 0.00 | 0.00 | 30 | 1017.0 |
| 20260502113056 | 56 | 270 | 2.0 | 6.0 | 0.00 | 0.00 | 0.00 | 31 | 1016.9 |
| 20260502111558 | 56 | 263 | 2.0 | 6.0 | 0.00 | 0.00 | 0.00 | 33 | 1016.9 |
| 20260502110100 | 54 | 0 | 0.0 | 3.0 | 0.00 | 0.00 | 0.00 | 35 | 1016.8 |
| 20260502104557 | 55 | 252 | 0.0 | 3.0 | 0.00 | 0.00 | 0.00 | 34 | 1016.8 |
| 20260502103101 | 57 | 0 | 0.0 | 3.0 | 0.00 | 0.00 | 0.00 | 31 | 1016.6 |
| 20260502101556 | 59 | 0 | 0.0 | 5.0 | 0.00 | 0.00 | 0.00 | 30 | 1016.6 |
| 20260502080106 | 59 | 236 | 2.0 | 5.0 | 0.00 | 0.00 | 0.00 | 28 | 1017.1 |
| 20260502070056 | 61 | 271 | 1.0 | 6.0 | 0.00 | 0.00 | 0.00 | 26 | 1016.8 |